Le nostre stazioni meteo in Italia

Pubblicità
Il mio iltempo24.it
Pratica Di Mare, Italia (16245): Temperatura & dewpoint: 03.04.2020 19:00:00 - 09.04.2020 19:00:00 (CEST)Pratica Di Mare, Italia (16245): velocità del vento: 03.04.2020 19:00:00 - 09.04.2020 19:00:00 (CEST)Pratica Di Mare, Italia (16245): direzione del vento: 03.04.2020 19:00:00 - 09.04.2020 19:00:00 (CEST)Pratica Di Mare, Italia (16245): reduced air pressure: 03.04.2020 19:00:00 - 09.04.2020 19:00:00 (CEST)Pratica Di Mare, Italia (16245): visibility: 03.04.2020 19:00:00 - 09.04.2020 19:00:00 (CEST)
Data & Tempo tt [°C] td [°C] ff [km/h] ff [kn] dd ppp [hPa] vv [km]
09.04.2020 19:00:00 - - - - - - -
09.04.2020 18:00:00 16,0 11,0 13 7 OSO - 10
09.04.2020 17:00:00 15,8 11,2 13 7 OSO 1021,7 20
09.04.2020 16:00:00 16,0 12,0 13 7 SO - 10
09.04.2020 15:00:00 16,0 12,0 13 7 SO - 10
09.04.2020 14:00:00 16,0 10,1 11 6 SO 1022,5 20
09.04.2020 13:00:00 15,0 11,0 15 8 SSO - 10
09.04.2020 12:00:00 15,0 11,0 16 9 SSO - 10
09.04.2020 11:00:00 15,0 11,0 13 7 SSO 1022,7 10
09.04.2020 10:00:00 13,0 9,0 8 4 ESE - 10
09.04.2020 09:00:00 11,0 9,0 5 3 E - 7
09.04.2020 08:00:00 9,8 8,6 8 4 ENE 1022,2 5
09.04.2020 07:00:00 8,0 7,0 4 2 NE - 5
09.04.2020 06:00:00 8,0 7,0 5 3 NE - 5
09.04.2020 05:00:00 8,4 7,7 4 2 NE 1021,8 5
09.04.2020 04:00:00 8,0 7,0 5 3 NE - 10
09.04.2020 03:00:00 10,0 9,0 5 3 NNE - 10
09.04.2020 02:00:00 10,4 9,3 4 2 NNE 1022,8 10
09.04.2020 01:00:00 10,0 9,0 4 2 E - 10
09.04.2020 00:00:00 11,0 10,0 5 3 SE - 10
08.04.2020 23:00:00 11,0 10,1 4 2 SE 1023,4 10
08.04.2020 22:00:00 11,0 10,0 4 2 SE - 10
08.04.2020 21:00:00 12,0 11,0 4 2 ENE - 10
08.04.2020 20:00:00 13,0 12,2 4 2 OSO 1022,6 10
08.04.2020 19:00:00 14,0 13,0 8 4 OSO - 10
08.04.2020 18:00:00 15,0 12,0 13 7 O - 10
08.04.2020 17:00:00 16,0 11,2 11 6 O 1023,0 20
08.04.2020 16:00:00 16,0 11,0 13 7 OSO - 10
08.04.2020 15:00:00 17,0 9,0 11 6 OSO - 10
08.04.2020 14:00:00 16,4 6,8 9 5 SO 1024,3 20
08.04.2020 13:00:00 16,0 8,0 15 8 SSO - 10
08.04.2020 12:00:00 16,0 8,0 15 8 SSO - 10
08.04.2020 11:00:00 16,0 7,7 13 7 S 1025,6 20
08.04.2020 10:00:00 16,0 8,0 13 7 SSE - 10
08.04.2020 09:00:00 13,0 7,0 4 2 SE - 10
08.04.2020 08:00:00 8,0 4,8 8 4 NNE 1025,4 20
08.04.2020 07:00:00 8,0 4,0 9 5 NE - 10
08.04.2020 06:00:00 8,0 4,0 9 5 NNE - 10
08.04.2020 05:00:00 7,6 5,4 8 4 NNE 1025,6 12
08.04.2020 04:00:00 8,0 5,0 9 5 NNE - 10
08.04.2020 03:00:00 8,0 5,0 9 5 NNE - 10
08.04.2020 02:00:00 7,6 5,6 8 4 NNE 1026,2 12
08.04.2020 01:00:00 8,0 6,0 4 2 ENE - 10
08.04.2020 00:00:00 8,0 7,0 5 3 NE - 10
07.04.2020 23:00:00 8,4 7,8 5 3 NE 1026,5 12
07.04.2020 22:00:00 9,0 9,0 8 4 NNE - 10
07.04.2020 21:00:00 10,0 10,0 4 2 NNE - 10
07.04.2020 20:00:00 12,8 10,9 4 2 ONO 1025,7 15
07.04.2020 19:00:00 15,0 10,0 9 5 O - 10
07.04.2020 18:00:00 16,0 10,0 13 7 O - 10
07.04.2020 17:00:00 15,8 9,2 13 7 O 1025,4 25
07.04.2020 16:00:00 16,0 9,0 15 8 O - 10
07.04.2020 15:00:00 16,0 11,0 15 8 OSO - 10
07.04.2020 14:00:00 15,8 12,4 13 7 SSO 1026,5 25
07.04.2020 13:00:00 15,0 11,0 11 6 SO - 10
07.04.2020 12:00:00 15,0 11,0 13 7 SSO - 10
07.04.2020 11:00:00 15,0 11,2 13 7 S 1026,4 25
07.04.2020 10:00:00 15,0 10,0 11 6 SSE - 10
07.04.2020 09:00:00 12,0 8,0 8 4 SE - 10
07.04.2020 08:00:00 8,2 5,1 5 3 E 1024,9 20
07.04.2020 07:00:00 7,0 5,0 13 7 NNE - 10
07.04.2020 06:00:00 7,0 5,0 11 6 NNE - 10
07.04.2020 05:00:00 7,2 5,4 8 4 N 1024,9 10
07.04.2020 04:00:00 7,0 6,0 5 3 NE - 10
07.04.2020 03:00:00 8,0 6,0 13 7 N - 10
07.04.2020 02:00:00 8,0 6,0 9 5 NNE 1025,3 10
07.04.2020 01:00:00 9,0 7,0 9 5 NNE - 10
07.04.2020 00:00:00 9,0 7,0 9 5 NNE - 10
06.04.2020 23:00:00 10,0 7,6 9 5 NNE 1024,7 12
06.04.2020 22:00:00 12,0 9,0 8 4 NNE - 10
06.04.2020 21:00:00 12,0 9,0 8 4 NNE - 10
06.04.2020 20:00:00 14,0 10,0 5 3 ONO 1023,7 15
06.04.2020 19:00:00 15,0 9,0 11 6 ONO - 10
06.04.2020 18:00:00 16,0 9,0 15 8 O - 10
06.04.2020 17:00:00 16,6 9,1 21 11 O 1022,7 20
06.04.2020 16:00:00 17,0 9,0 22 12 O - 10
06.04.2020 15:00:00 18,0 9,0 16 9 O - 10
06.04.2020 14:00:00 16,8 10,2 16 9 OSO 1022,6 20
06.04.2020 13:00:00 17,0 11,0 15 8 SO - 10
06.04.2020 12:00:00 18,0 8,0 13 7 SSO - 10
06.04.2020 11:00:00 18,0 7,4 9 5 SSO 1022,2 20
06.04.2020 10:00:00 16,0 7,0 8 4 NNE - 10
06.04.2020 09:00:00 12,0 6,0 13 7 NNE - 10
06.04.2020 08:00:00 9,8 4,6 15 8 NNE 1020,5 15
06.04.2020 07:00:00 10,0 4,0 13 7 NNE - 10
06.04.2020 06:00:00 10,0 4,0 13 7 NNE - 10
06.04.2020 05:00:00 10,0 4,4 13 7 NNE 1019,9 12
06.04.2020 04:00:00 10,0 5,0 16 9 NNE - 10
06.04.2020 03:00:00 10,0 8,0 8 4 N - 10
06.04.2020 02:00:00 12,4 9,0 4 2 N 1019,9 12
06.04.2020 01:00:00 12,0 9,0 8 4 NE - 10
06.04.2020 00:00:00 11,0 8,0 13 7 SSE - 10
05.04.2020 23:00:00 12,0 7,9 11 6 ESE 1018,7 12
05.04.2020 22:00:00 14,0 8,0 16 9 E - 10
05.04.2020 21:00:00 15,0 8,0 16 9 E - 10
05.04.2020 20:00:00 15,0 8,7 8 4 ONO 1016,8 15
05.04.2020 19:00:00 17,0 7,0 21 11 ONO - 10
05.04.2020 18:00:00 17,0 10,0 22 12 O - 10
05.04.2020 17:00:00 18,0 8,0 22 12 O 1016,6 15
05.04.2020 16:00:00 19,0 6,0 22 12 O - 10
05.04.2020 15:00:00 20,0 6,0 13 7 O - 10
05.04.2020 14:00:00 19,8 4,7 11 6 N 1017,4 15
05.04.2020 13:00:00 19,0 4,0 11 6 NNE - 10
05.04.2020 12:00:00 17,0 5,0 18 10 NNE - 10
05.04.2020 11:00:00 15,4 4,2 18 10 NNE 1017,6 15
05.04.2020 10:00:00 13,0 4,0 22 12 NNE - 10
05.04.2020 09:00:00 11,0 3,0 21 11 NNE - 10
05.04.2020 08:00:00 9,4 2,5 18 10 NNE 1017,3 15
05.04.2020 07:00:00 8,0 1,0 21 11 NNE - 10
05.04.2020 06:00:00 9,0 2,0 18 10 NNE - 10
05.04.2020 05:00:00 9,6 1,7 18 10 N 1017,2 10
05.04.2020 04:00:00 9,0 1,0 15 8 NNE - 10
05.04.2020 03:00:00 8,0 0,0 15 8 NNE - 10
05.04.2020 02:00:00 8,8 1,9 5 3 NNE 1017,4 15
05.04.2020 01:00:00 11,0 2,0 15 8 NNE - 10
05.04.2020 00:00:00 11,0 2,0 16 9 NNE - 10
04.04.2020 23:00:00 12,2 2,7 13 7 NNE 1016,8 15
04.04.2020 22:00:00 13,0 3,0 18 10 NNE - 10
04.04.2020 21:00:00 14,0 2,0 16 9 N - 10
04.04.2020 20:00:00 15,4 1,2 16 9 N 1014,7 15
04.04.2020 19:00:00 16,0 8,0 13 7 ONO - 10
04.04.2020 18:00:00 17,0 10,0 22 12 O - 10
04.04.2020 17:00:00 17,6 7,1 24 13 O 1014,2 15
04.04.2020 16:00:00 17,0 8,0 29 16 O - 10
04.04.2020 15:00:00 16,0 9,0 26 14 O - 10
04.04.2020 14:00:00 16,4 6,5 24 13 O 1015,4 15
04.04.2020 13:00:00 17,0 7,0 15 8 OSO - 10
04.04.2020 12:00:00 16,0 2,0 9 5 N - 10
04.04.2020 11:00:00 14,0 3,7 8 4 N 1015,7 15
04.04.2020 10:00:00 13,0 4,0 11 6 N - 10
04.04.2020 09:00:00 10,0 3,0 15 8 NNE - 10
04.04.2020 08:00:00 6,8 1,3 13 7 NNE 1015,3 10
04.04.2020 07:00:00 6,0 4,0 15 8 N - 10
04.04.2020 06:00:00 6,0 5,0 13 7 NNE - 10
04.04.2020 05:00:00 6,2 5,2 15 8 NNE 1012,8 10
04.04.2020 04:00:00 6,0 5,0 13 7 N - 10
04.04.2020 03:00:00 7,0 6,0 8 4 NNE - 10
04.04.2020 02:00:00 6,4 5,4 8 4 NNE 1012,7 10
04.04.2020 01:00:00 6,0 5,0 5 3 NE - 10
04.04.2020 00:00:00 6,0 6,0 9 5 NE - 10
03.04.2020 23:00:00 8,0 7,2 4 2 E 1012,2 10
03.04.2020 22:00:00 9,0 9,0 4 2 NNO - 10
03.04.2020 21:00:00 10,0 9,0 4 2 N - 10
03.04.2020 20:00:00 11,0 6,4 5 3 NO 1011,4 10
03.04.2020 19:00:00 13,0 7,0 13 7 ONO - 10

tt = Temperatura
td = dewpoint
ff = velocità del vento
dd = direzione del vento
ppp = reduced air pressure
vv = visibility

Stazioni seguenti

WeatherPro
AMSI
MeteoEarth